Volver al catálogo

ARIANE 42P R/B

ActivoLEO
NORAD 22079·ROCKET BODY·🇫🇷 France

Lanzado Aug 10, 1992 desde Guiana Space Centre

Loading…

Próximos Pases (próximas 24 horas)

TLE

ActualizadoSource: Space-Track

Época: Sep 14, 2026, 13:49 UTC

1 22079U 92052D   26257.57600594 -.00000001  00000-0  26524-3 0  9990
2 22079  66.0645 121.5218 0076197 264.3316 110.2888 12.77965305590810

Sigue ARIANE 42P R/B en tiempo real con AllMySat

Download on the App Store